Regional Weather Roundup
Issued by NWS

Home | Current Version | Previous Version | Graphics & Text | Print | Product List | Glossary On
Versions: 1 2 3 4 5 6 7 8 9 10 11 12 13 14 15 16 17 18 19 20 21 22 23 24 25 26 27 28 29 30 31 32 33 34 35 36 37 38 39 40 41 42 43 44 45 46 47 48 49 50
000
ASUS45 KCYS 040710
RWRWY

WYOMING REGIONAL WEATHER ROUNDUP
NATIONAL WEATHER SERVICE CHEYENNE WY
100 AM MDT SAT JUL 04 2015

NOTE:  "FAIR" INDICATES FEW OR NO CLOUDS BELOW 12,000 FEET
WITH NO SIGNIFICANT WEATHER AND/OR OBSTRUCTIONS TO VISIBILITY.

WYZ001-040800-
YELLOWSTONE NATIONAL PARK

CITY           SKY/WX    TMP DP  RH WIND       PRES   REMARKS
LK YELLOWSTONE   N/A     50  41  71 CALM      30.21F
W YELLOWSTONE  NOT AVBL

$$
WYZ002>013-054>058-071-098>099-040800-
NORTHERN WYOMING

CITY           SKY/WX    TMP DP  RH WIND       PRES   REMARKS
JACKSON        FAIR      57  48  72 N6        30.09S
CODY           FAIR      70  52  52 SW6       29.98S
GREYBULL       FAIR      74  50  42 E5        29.88F
WORLAND        FAIR      66  57  72 S8        29.91F
SHERIDAN       FAIR      64  56  75 CALM      29.89F
BUFFALO        FAIR      67  54  63 S3        29.98F
GILLETTE       FAIR      70  56  61 S15       29.94F
HULETT         FAIR      68  54  60 MISG      29.97F
NEWCASTLE      FAIR      70  52  52 SE12      29.99F

$$
WYZ014>020-022>026-101>103-040800-
CENTRAL WYOMING

CITY           SKY/WX    TMP DP  RH WIND       PRES   REMARKS
BIG PINEY      FAIR      60  43  53 N7        30.16S
PINEDALE       FAIR      59  48  67 NW5       30.17S
DUBOIS         FAIR      59  37  44 NW10      30.15S
LANDER         FAIR      68  46  45 W12       30.02F
RIVERTON       FAIR      67  49  52 N9        30.02S
CASPER         FAIR      59  52  77 NW6       30.01F
DOUGLAS        FAIR      66  52  60 SE5       30.01F

$$
WYZ021-027>030-104>119-040800-
SOUTHERN WYOMING

CITY           SKY/WX    TMP DP  RH WIND       PRES   REMARKS
EVANSTON       FAIR      69  42  37 S6        30.19S
KEMMERER       FAIR     N/A N/A N/A CALM      30.19F
FORT BRIDGER   SUNNY     73  41  31 SW10      30.20S
ROCK SPRINGS   FAIR      68  38  33 SW7       30.13S
DIXON          FAIR      60  45  56 SE6       30.14R
RAWLINS        FAIR      64  51  62 NE10      30.11S
SARATOGA       FAIR      64  48  55 SE14      30.13S
LARAMIE        FAIR      60  52  74 SW14      30.16F
CHEYENNE       FAIR      63  54  72 S9        30.11F
TORRINGTON     FAIR      71  56  58 SE12      30.00R
PINE BLUFFS    FAIR      64  54  68 S12       30.07S

$$


USA.gov is the U.S. government's official web portal to all federal, state and local government web resources and services.